KOSEN 1
1 49402U 21102H   25348.08237345  .00009483  00000-0  39713-3 0  9999
2 49402  97.3477  28.9444 0015726 136.7005 223.5471 15.23642277225802
HO-113
1 50466U 21131B   25348.31646192  .00001152  00000-0  37113-3 0  9990
2 50466  98.5047  76.7295 0003134 300.6065  59.4814 14.41116843208489
SNUGLITE 2
1 52899U 22065F   25348.30600293  .00001758  00000-0  34579-3 0  9995
2 52899  98.1921 128.8297 0006532 239.7237 120.3319 14.63842900183942
UmKA 1 (RS40S)
1 57172U 23091G   25348.32405442  .00007425  00000-0  36543-3 0  9995
2 57172  97.5345  42.7817 0014593  48.2015 312.0463 15.18197440135938
CubeBel-2 (EU11S)
1 57175U 23091K   25348.29685932  .00015223  00000-0  62796-3 0  9992
2 57175  97.5345  45.2557 0011993  51.3551 308.8757 15.24085146136094
RS-38S
1 57189U 23091Z   25348.34170030  .00016918  00000-0  59434-3 0  9998
2 57189  97.5368  49.7651 0008640  17.5826 342.5711 15.29425945136378
SONATE-2
1 59112U 24043Q   25348.33679302  .00031093  00000-0  65471-3 0  9998
2 59112  97.5320 124.6470 0009062 155.8151 204.3525 15.45180617 99224
MO-122
1 60209U 24125G   25348.14745085  .00034486  00000-0  69537-3 0  9995
2 60209  97.2527 198.5202 0014279 172.5169 187.6297 15.46360173 80826
GRBBeta
1 60237U 24128C   25348.01396716  .00006218  00000-0  43824-3 0  9991
2 60237  61.9891 145.0979 0056245  96.8188 263.9308 15.04773428 78389
Curium One
1 60242U 24128H   25347.98854410  .00010715  00000-0  66408-3 0  9992
2 60242  61.9785 140.0346 0056053  93.6876 267.0630 15.08925071 78476
ROBUSTA-3A
1 60243U 24128J   25347.85984157  .00008987  00000-0  56998-3 0  9992
2 60243  61.9859 142.0257 0056178  91.1454 269.6076 15.08239765 78431
CatSat
1 60246U 24125J   25348.29861140  .00040438  00000-0  96913-3 0  9995
2 60246  97.2313 195.6660 0034152 138.6989 221.6850 15.40682623 78766
HYPERVIEW-1G (RS66S)
1 61772U 24199AP  25348.35890971  .00043253  00000-0  82493-3 0  9998
2 61772  97.3214 217.8139 0007967 229.4942 130.5615 15.48006353105869
AO-123
1 61781U 24199AY  25348.30558229  .00012306  00000-0  39969-3 0  9995
2 61781  97.3255 213.7383 0012831 249.2705 110.7162 15.31993641105586
ZIMSAT 2
1 61783U 24199BA  25348.32083580  .00237318  00000-0  16189-2 0  9992
2 61783  97.3086 221.3622 0003914 180.2812 179.8451 15.74144678109256
HADES-R (SO-124)
1 62690U 25009CK  25348.17875069  .00161946  00000-0  20039-2 0  9997
2 62690  97.3868  70.8544 0001171 260.3558  99.7566 15.59548784 51007
HYDRA-T
1 62692U 25009CM  25348.21956750  .00202539  00000-0  23131-2 0  9991
2 62692  97.3863  71.1032 0001547 274.2597  85.8484 15.61520533 51026
JINJUSat 1B
1 63210U 25052A   25348.16188464  .00016977  00000-0  64711-3 0  9998
2 63210  97.4203 240.3082 0005361  44.2140 315.9526 15.26756190 41804
NUSHSAT 1
1 63211U 25052B   25348.15623485  .00019833  00000-0  73132-3 0  9996
2 63211  97.4184 240.4260 0005485  47.1823 312.9876 15.27819323 41814
TEVEL2-4
1 63213U 25052D   25348.15771417  .00018274  00000-0  68816-3 0  9998
2 63213  97.4107 239.9763 0005013  60.8877 299.2864 15.27143370 41805
TEVEL2-5
1 63214U 25052E   25347.70455220  .00019693  00000-0  74335-3 0  9999
2 63214  97.4102 239.5140 0005012  62.1529 298.0217 15.27048507 41731
TEVEL2-6
1 63215U 25052F   25348.17059502  .00018694  00000-0  70647-3 0  9997
2 63215  97.4107 239.9651 0005118  61.0127 299.1624 15.27020110 41809
TEVEL2-1
1 63217U 25052H   25348.21357714  .00018481  00000-0  70538-3 0  9993
2 63217  97.4082 239.8175 0005297  69.2714 290.9092 15.26692447 41808
TEVEL2-3
1 63218U 25052J   25348.27829956  .00018469  00000-0  70440-3 0  9990
2 63218  97.4082 239.8875 0005346  69.4294 290.7518 15.26717126 41810
TEVEL2-2
1 63219U 25052K   25348.27988799  .00018471  00000-0  70491-3 0  9991
2 63219  97.4082 239.8834 0005352  70.0980 290.0835 15.26696255 41817
TEVEL2-9
1 63237U 25052AD  25348.24444577  .00018264  00000-0  72859-3 0  9999
2 63237  97.4139 239.5528 0009274  78.4480 281.7799 15.25194673 41778
TEVEL2-7
1 63238U 25052AE  25347.66797492  .00018627  00000-0  74688-3 0  9997
2 63238  97.4144 238.9560 0009363  79.3950 280.8342 15.25018623 41689
TEVEL2-8
1 63239U 25052AF  25348.26416945  .00017779  00000-0  71317-3 0  9999
2 63239  97.4142 239.5308 0009370  78.2797 281.9492 15.25014733 41776
HYDRA-W
1 63490U 25052BL  25348.19495536  .00078851  00000-0  18529-2 0  9996
2 63490  97.4063 241.9963 0011524  68.3865 291.8608 15.41651156 41943
HADES-ICM (SO-125)
1 63492U 25052BN  25347.67165520  .00060178  00000-0  15174-2 0  9993
2 63492  97.4083 241.1938 0011548  72.8345 287.4164 15.39591975 41846
Dragonfly
1 65729U 98067XH  25347.69198777  .00179632  00000-0  13021-2 0  9991
2 65729  51.6241 130.8872 0006817 284.2780  75.7461 15.72310549 13317
RSP-03
1 65732U 98067XL  25347.69463906  .00138092  00000-0  11602-2 0  9992
2 65732  51.6251 131.6633 0005764 257.9098 102.1253 15.68925685 13317
GHS-01
1 65733U 98067XM  25347.64190642  .00231510  00000-0  14639-2 0  9994
2 65733  51.6271 130.5592 0007397 286.1274  73.8911 15.75321114 13327
BOTAN
1 65942U 98067XP  25347.80521917  .00116317  00000-0  12360-2 0  9993
2 65942  51.6273 133.9097 0002985 245.5023 114.5660 15.63168137 10037
BEE-1000
1 66650U 25274A   25348.22820979  .00002441  00000-0  24819-3 0  9992
2 66650  97.7389 275.3885 0010404 245.7583 114.2549 14.91670409  2626
SPIRONE
1 66657U 25274H   25348.28632004  .00004235  00000-0  41795-3 0  9990
2 66657  97.7387 275.4658 0010541 270.0745  89.9266 14.92467608  2634
K-HERO
1 66660U 25274L   25348.28031624  .00003748  00000-0  36577-3 0  9995
2 66660  97.7389 275.4745 0012517 275.0183  84.9607 14.92970721  2632
SNUGLITE-III DURI
1 66661U 25274M   25348.27857178  .00003225  00000-0  31440-3 0  9999
2 66661  97.7388 275.4762 0013200 276.2910  83.6806 14.93107895  2634
SilverSat
1 66909U 98067XV  25347.82070451  .00075840  00000-0  12407-2 0  9998
2 66909  51.6299 137.0079 0004332 234.1355 125.9233 15.51822369  1789
CEVROSAT1
1 98526U 25248E   25313.13142326  .00000000  00000-0  19360-3 0    02
2 98526  45.4084 218.4764 0001315 254.8982 242.1062 15.17981583    02
